Regional Weather Roundup
Issued by NWS

Home | Current Version | Previous Version | Text Only | Print | Product List | Glossary On
Versions: 1 2 3 4 5 6 7 8 9 10 11 12 13 14 15 16 17 18 19 20 21 22 23 24 25 26 27 28 29 30 31 32 33 34 35 36 37 38 39 40 41 42 43 44 45 46 47 48 49 50
000
ASUS45 KBOI 252110
RWRID
WEATHER ROUNDUP FOR IDAHO
NATIONAL WEATHER SERVICE BOISE ID
200 PM MST SUN JAN 25 2015

NOTE: "FAIR" INDICATES FEW OR NO CLOUDS BELOW 12000 FEET
WITH NO SIGNIFICANT WEATHER AND/OR OBSTRUCTIONS TO VISIBILITY

IDZ012-014-252200-
SOUTHWEST IDAHO


CITY           SKY/WX    TMP DP  RH WIND       PRES   REMARKS
BOISE          MOSUNNY   43  34  70 W5        30.42F
CALDWELL       CLOUDY    37  28  70 S3        30.47F
MOUNTAIN HOME  MOSUNNY   41  33  74 VRB5      30.41F
$$

IDZ016-017-252200-
SOUTHCENTRAL IDAHO


CITY           SKY/WX    TMP DP  RH WIND       PRES   REMARKS
BURLEY         MOSUNNY   49  34  56 NE7       30.39F
JEROME         MOSUNNY   39  31  72 NE10      30.41F WCI  32
TWIN FALLS     SUNNY     47  36  65 N5        30.40F
$$

IDZ019>023-252200-
SOUTHEAST IDAHO


CITY           SKY/WX    TMP DP  RH WIND       PRES   REMARKS
IDAHO FALLS    CLOUDY    31  29  92 N8        30.44F FOG     WCI  23
POCATELLO      PTSUNNY   40  34  79 VRB3      30.43F
REXBURG        CLOUDY    30  30 100 CALM      30.44S FOG
$$

IDZ006-010-011-018-031-032-252200-
CENTRAL IDAHO MOUNTAINS


CITY           SKY/WX    TMP DP  RH WIND       PRES   REMARKS
MCCALL         PTSUNNY   34  33  96 CALM      30.37F
HAILEY         MOSUNNY   36  28  75 SE9       30.41F WCI  29
STANLEY          N/A     42  29  59 CALM      30.41F
SALMON         MOSUNNY   36  27  69 N3        30.36F
CHALLIS        MOSUNNY   46  32  58 CALM      30.34F
$$

IDZ002-004-006-007-026-252200-
NORTHERN IDAHO


CITY           SKY/WX    TMP DP  RH WIND       PRES   REMARKS
LEWISTON       MOSUNNY   57  43  59 E7        30.23F
LOWELL           N/A     44  39  82 N5        30.34F
COEUR D`ALENE  PTSUNNY   54  45  71 S8        30.20F
MULLAN PASS    PTSUNNY   43  32  65 W7G16     30.23F
$$



USA.gov is the U.S. government's official web portal to all federal, state and local government web resources and services.